This is the latest recevied weather packets stored in our database for station/object KC4GS-13. If no packets are shown the sender has not sent any weather packets the latest 10 day(s).
| Time | Temp. | Humidity | Pressure | Rain* | Wind** | Luminosity | Snow |
|---|---|---|---|---|---|---|---|
| 1778110233 | 27.78° C | 54% | 1013.1 hPa | 0 mm | - | 26 W/m² | - |
| 1778109930 | 28.33° C | 54% | 1013.1 hPa | 0 mm | - | 32 W/m² | - |
| 1778109625 | 28.33° C | 53% | 1013.3 hPa | 0 mm | - | 36 W/m² | - |
| 1778109322 | 28.33° C | 53% | 1013 hPa | 0 mm | - | 34 W/m² | - |
| 1778109015 | 28.33° C | 52% | 1013.4 hPa | 0 mm | - | 34 W/m² | - |
| 1778108711 | 28.89° C | 52% | 1013.3 hPa | 0 mm | - | 31 W/m² | - |
| 1778108409 | 28.89° C | 51% | 1013.5 hPa | 0 mm | - | 31 W/m² | - |
| 1778108105 | 28.89° C | 51% | 1013.3 hPa | 0 mm | - | 35 W/m² | - |
| 1778107801 | 29.44° C | 50% | 1013.3 hPa | 0 mm | - | 61 W/m² | - |
| 1778107498 | 29.44° C | 50% | 1013.3 hPa | 0 mm | - | 88 W/m² | - |
| 1778107195 | 29.44° C | 50% | 1013.1 hPa | 0 mm | - | 95 W/m² | - |
| 1778106891 | 30° C | 49% | 1012.9 hPa | 0 mm | - | 112 W/m² | - |
| 1778106587 | 30° C | 48% | 1012.9 hPa | 0 mm | - | 178 W/m² | - |
| 1778106284 | 30° C | 48% | 1012.8 hPa | 0 mm | - | 112 W/m² | - |
| 1778105975 | 30° C | 47% | 1012.7 hPa | 0 mm | - | 163 W/m² | - |
| 1778105672 | 30.56° C | 46% | 1012.8 hPa | 0 mm | - | 136 W/m² | - |
| 1778105371 | 30.56° C | 47% | 1012.7 hPa | 0 mm | - | 159 W/m² | - |
| 1778105066 | 30.56° C | 47% | 1013 hPa | 0 mm | - | 214 W/m² | - |
| 1778104763 | 30.56° C | 47% | 1013.1 hPa | 0 mm | - | 194 W/m² | - |
| 1778104459 | 30.56° C | 46% | 1013 hPa | 0 mm | - | 249 W/m² | - |
| 1778104155 | 31.11° C | 46% | 1013.1 hPa | 0 mm | - | 195 W/m² | - |
| 1778103852 | 31.11° C | 46% | 1013.4 hPa | 0 mm | - | 231 W/m² | - |
| 1778103549 | 31.11° C | 46% | 1013.2 hPa | 0 mm | - | 294 W/m² | - |
| 1778103247 | 31.11° C | 46% | 1013.4 hPa | 0 mm | - | 331 W/m² | - |
| 1778102944 | 31.11° C | 45% | 1013.2 hPa | 0 mm | - | 296 W/m² | - |
* Rain latest hour (hover to see other rain measurements)
** Current wind speed in m/s (hover to see current wind gust speed)